Location: Isola Pescaroli
(45.0500°N, 10.1667°E)
Time: 08:07:29
(UTC+00:00)

SJ-6B - Visible Passes

Search period start: 16 June 2021 00:00
Search period end: 26 June 2021 00:00
Orbit: 509 x 580 km, 97.6° (Epoch: 15 June)

Date Brightness Start Highest point End Pass type
(mag) Time Alt. Az. Time Alt. Az. Time Alt. Az.
16 Jun 5.6 20:13:20 10° SW 20:16:02 17° W 20:18:45 10° NW visible
17 Jun 5.4 20:07:09 10° SW 20:10:09 19° W 20:13:07 10° NW visible
18 Jun 5.2 20:01:02 10° SW 20:04:16 22° W 20:07:28 10° NW visible
19 Jun 5.0 19:54:57 10° SSW 19:58:23 25° W 20:01:47 10° NW visible
20 Jun 4.8 19:48:55 10° SSW 19:52:29 29° W 19:56:03 10° NW visible
21 Jun 4.5 19:42:55 10° SSW 19:46:37 33° W 19:50:18 10° NNW visible
